Time,TemperatureF,DewpointF,PressureIn,WindDirection,WindDirectionDegrees,WindSpeedMPH,WindSpeedGustMPH,Humidity,HourlyPrecipIn,Conditions,Clouds,dailyrainin,SoftwareType,DateUTC
2013-02-06 00:01:00,26.0,26.0,-100.00,SE,136,1.0,2.0,100,0.16,,,-99.99,,2013-02-06 07:01:00,
2013-02-06 00:11:00,26.0,26.0,-100.00,SE,127,3.0,4.0,100,0.04,,,-99.99,,2013-02-06 07:11:00,
2013-02-06 00:21:00,26.0,26.0,-100.00,North,350,9.0,19.0,100,0.12,,,-99.99,,2013-02-06 07:21:00,
2013-02-06 00:32:00,25.0,25.0,-100.00,NW,316,6.0,8.0,100,0.04,,,-99.99,,2013-02-06 07:32:00,
2013-02-06 00:41:00,25.0,25.0,-100.00,NW,316,6.0,8.0,100,0.04,,,-99.99,,2013-02-06 07:41:00,
2013-02-06 00:52:00,25.0,24.0,-100.00,NW,311,7.0,13.0,96,0.00,,,-99.99,,2013-02-06 07:52:00,
2013-02-06 01:01:00,25.0,24.0,-100.00,NW,311,7.0,13.0,96,0.00,,,-99.99,,2013-02-06 08:01:00,
2013-02-06 01:11:00,25.0,24.0,-100.00,NW,311,7.0,13.0,96,0.00,,,-99.99,,2013-02-06 08:11:00,
2013-02-06 01:21:00,24.0,23.0,-100.00,WNW,288,4.0,8.0,96,0.00,,,-99.99,,2013-02-06 08:21:00,
2013-02-06 01:31:00,24.0,23.0,-100.00,WNW,288,4.0,8.0,96,0.00,,,-99.99,,2013-02-06 08:31:00,
2013-02-06 01:41:00,24.0,23.0,-100.00,NW,319,6.0,8.0,93,0.00,,,-99.99,,2013-02-06 08:41:00,
2013-02-06 01:53:00,24.0,22.0,-100.00,NW,318,3.0,4.0,93,0.00,,,-99.99,,2013-02-06 08:53:00,
2013-02-06 02:01:00,24.0,22.0,-100.00,NW,318,3.0,4.0,93,0.00,,,-99.99,,2013-02-06 09:01:00,
2013-02-06 02:11:00,24.0,22.0,-100.00,WSW,250,5.0,14.0,90,0.00,,,-99.99,,2013-02-06 09:11:00,
2013-02-06 02:21:00,24.0,22.0,-100.00,North,349,3.0,4.0,92,0.00,,,-99.99,,2013-02-06 09:21:00,
2013-02-06 02:31:00,24.0,22.0,-100.00,North,349,3.0,4.0,92,0.00,,,-99.99,,2013-02-06 09:31:00,
2013-02-06 02:41:00,23.0,21.0,-100.00,WNW,292,2.0,4.0,93,0.00,,,-99.99,,2013-02-06 09:41:00,
2013-02-06 02:52:00,20.0,19.0,-100.00,West,281,0.0,0.0,95,0.00,,,-99.99,,2013-02-06 09:52:00,
2013-02-06 03:01:00,20.0,19.0,-100.00,West,281,0.0,0.0,95,0.00,,,-99.99,,2013-02-06 10:01:00,
2013-02-06 03:11:00,18.0,17.0,-100.00,SW,233,1.0,1.0,95,0.00,,,-99.99,,2013-02-06 10:11:00,
2013-02-06 03:21:00,19.0,18.0,-100.00,ESE,104,1.0,2.0,97,0.00,,,-99.99,,2013-02-06 10:21:00,
2013-02-06 03:31:00,19.0,18.0,-100.00,ESE,104,1.0,2.0,97,0.00,,,-99.99,,2013-02-06 10:31:00,
2013-02-06 03:41:00,19.0,18.0,-100.00,ESE,104,1.0,2.0,97,0.00,,,-99.99,,2013-02-06 10:41:00,
2013-02-06 03:52:00,17.0,16.0,-100.00,WSW,254,0.0,1.0,97,0.00,,,-99.99,,2013-02-06 10:52:00,
2013-02-06 04:01:00,18.0,17.0,-100.00,South,186,2.0,3.0,99,0.00,,,-99.99,,2013-02-06 11:01:00,
2013-02-06 04:11:00,18.0,17.0,-100.00,South,186,2.0,3.0,99,0.00,,,-99.99,,2013-02-06 11:11:00,
2013-02-06 04:22:00,21.0,20.0,-100.00,SW,222,3.0,6.0,98,0.00,,,-99.99,,2013-02-06 11:22:00,
2013-02-06 04:32:00,23.0,22.0,-100.00,South,172,4.0,6.0,95,0.00,,,-99.99,,2013-02-06 11:32:00,
2013-02-06 04:42:00,23.0,22.0,-100.00,South,172,4.0,6.0,95,0.00,,,-99.99,,2013-02-06 11:42:00,
2013-02-06 04:53:00,23.0,21.0,-100.00,SSW,195,2.0,3.0,95,0.00,,,-99.99,,2013-02-06 11:53:00,
2013-02-06 05:01:00,22.0,20.0,-100.00,SSE,164,2.0,3.0,94,0.00,,,-99.99,,2013-02-06 12:01:00,
2013-02-06 05:12:00,22.0,20.0,-100.00,SSE,164,2.0,3.0,94,0.00,,,-99.99,,2013-02-06 12:12:00,
2013-02-06 05:22:00,22.0,21.0,-100.00,SE,131,3.0,5.0,95,0.00,,,-99.99,,2013-02-06 12:22:00,
2013-02-06 05:30:00,23.0,21.0,-100.00,SW,236,4.0,6.0,89,0.00,,,-99.99,,2013-02-06 12:30:00,
2013-02-06 05:32:00,22.0,21.0,-100.00,SE,131,3.0,5.0,95,0.00,,,-99.99,,2013-02-06 12:32:00,
2013-02-06 05:42:00,22.0,21.0,-100.00,SE,131,3.0,5.0,95,0.00,,,-99.99,,2013-02-06 12:42:00,
2013-02-06 05:52:00,24.0,21.0,-100.00,SSE,167,3.0,7.0,89,0.00,,,-99.99,,2013-02-06 12:52:00,
2013-02-06 06:01:00,24.0,21.0,-100.00,SSE,167,3.0,7.0,89,0.00,,,-99.99,,2013-02-06 13:01:00,
2013-02-06 06:11:00,23.0,21.0,-100.00,SW,236,4.0,6.0,89,0.00,,,-99.99,,2013-02-06 13:11:00,
2013-02-06 06:21:00,23.0,21.0,-100.00,SW,236,4.0,6.0,89,0.00,,,-99.99,,2013-02-06 13:21:00,
2013-02-06 07:21:00,23.0,20.0,-100.00,SE,138,6.0,10.0,91,0.00,,,-99.99,,2013-02-06 14:21:00,
2013-02-06 07:31:00,23.0,20.0,-100.00,SE,138,6.0,10.0,91,0.00,,,-99.99,,2013-02-06 14:31:00,
2013-02-06 07:41:00,22.0,21.0,-100.00,SE,141,4.0,6.0,94,0.00,,,-99.99,,2013-02-06 14:41:00,
2013-02-06 07:52:00,23.0,21.0,-100.00,South,184,3.0,5.0,91,0.00,,,-99.99,,2013-02-06 14:52:00,
2013-02-06 08:01:00,23.0,21.0,-100.00,South,184,3.0,5.0,91,0.00,,,-99.99,,2013-02-06 15:01:00,
2013-02-06 08:11:00,23.0,21.0,-100.00,South,184,3.0,5.0,91,0.00,,,-99.99,,2013-02-06 15:11:00,
2013-02-06 08:52:00,22.0,21.0,-100.00,SSW,212,1.0,3.0,95,0.00,,,-99.99,,2013-02-06 15:52:00,
2013-02-06 09:01:00,22.0,21.0,-100.00,SSW,212,1.0,3.0,95,0.00,,,-99.99,,2013-02-06 16:01:00,
2013-02-06 09:11:00,22.0,22.0,-100.00,SE,130,2.0,3.0,98,0.00,,,-99.99,,2013-02-06 16:11:00,
2013-02-06 09:21:00,23.0,22.0,-100.00,ENE,76,3.0,5.0,96,0.04,,,-99.99,,2013-02-06 16:21:00,
2013-02-06 09:32:00,23.0,22.0,-100.00,ENE,76,3.0,5.0,96,0.04,,,-99.99,,2013-02-06 16:32:00,
2013-02-06 09:42:00,23.0,22.0,-100.00,SE,144,3.0,6.0,95,0.00,,,-99.99,,2013-02-06 16:42:00,
2013-02-06 09:52:00,23.0,21.0,-100.00,SE,145,4.0,8.0,92,0.00,,,-99.99,,2013-02-06 16:52:00,
2013-02-06 10:01:00,23.0,21.0,-100.00,SE,145,4.0,8.0,92,0.00,,,-99.99,,2013-02-06 17:01:00,
2013-02-06 10:11:00,23.0,21.0,-100.00,SE,145,4.0,8.0,92,0.00,,,-99.99,,2013-02-06 17:11:00,
2013-02-06 11:11:00,24.0,23.0,-100.00,SSE,162,3.0,6.0,95,0.04,,,-99.99,,2013-02-06 18:11:00,
2013-02-06 11:22:00,24.0,23.0,-100.00,SE,128,3.0,5.0,97,0.08,,,-99.99,,2013-02-06 18:22:00,
2013-02-06 11:30:00,24.0,24.0,-100.00,SSW,213,3.0,6.0,99,0.04,,,-99.99,,2013-02-06 18:30:00,
2013-02-06 11:32:00,24.0,23.0,-100.00,SE,128,3.0,5.0,97,0.08,,,-99.99,,2013-02-06 18:32:00,
2013-02-06 11:41:00,23.0,23.0,-100.00,SE,141,5.0,7.0,99,0.04,,,-99.99,,2013-02-06 18:41:00,
2013-02-06 11:52:00,24.0,24.0,-100.00,SE,143,4.0,6.0,100,0.04,,,-99.99,,2013-02-06 18:52:00,
2013-02-06 12:01:00,24.0,24.0,-100.00,SE,143,4.0,6.0,100,0.04,,,-99.99,,2013-02-06 19:01:00,
2013-02-06 12:11:00,24.0,24.0,-100.00,SSW,213,3.0,6.0,99,0.04,,,-99.99,,2013-02-06 19:11:00,
2013-02-06 12:21:00,24.0,24.0,-100.00,SSW,213,3.0,6.0,99,0.04,,,-99.99,,2013-02-06 19:21:00,
2013-02-06 14:42:00,29.0,19.0,-100.00,West,278,4.0,11.0,66,0.00,,,-99.99,,2013-02-06 21:42:00,
2013-02-06 14:52:00,30.0,19.0,-100.00,SW,234,4.0,8.0,65,0.00,,,-99.99,,2013-02-06 21:52:00,
2013-02-06 15:01:00,30.0,19.0,-100.00,SW,234,4.0,8.0,65,0.00,,,-99.99,,2013-02-06 22:01:00,
2013-02-06 15:11:00,29.0,20.0,-100.00,West,267,2.0,4.0,68,0.00,,,-99.99,,2013-02-06 22:11:00,
2013-02-06 15:21:00,29.0,21.0,-100.00,SW,215,2.0,3.0,71,0.00,,,-99.99,,2013-02-06 22:21:00,
2013-02-06 15:31:00,29.0,21.0,-100.00,SW,215,2.0,3.0,71,0.00,,,-99.99,,2013-02-06 22:31:00,
2013-02-06 15:41:00,27.0,21.0,-100.00,North,352,4.0,6.0,77,0.00,,,-99.99,,2013-02-06 22:41:00,
2013-02-06 15:52:00,27.0,19.0,-100.00,WSW,240,4.0,7.0,72,0.00,,,-99.99,,2013-02-06 22:52:00,
2013-02-06 16:01:00,27.0,19.0,-100.00,WSW,240,4.0,7.0,72,0.00,,,-99.99,,2013-02-06 23:01:00,
2013-02-06 16:11:00,27.0,19.0,-100.00,WSW,240,4.0,7.0,72,0.00,,,-99.99,,2013-02-06 23:11:00,
2013-02-06 16:52:00,27.0,20.0,-100.00,South,172,2.0,4.0,77,0.00,,,-99.99,,2013-02-06 23:52:00,
2013-02-06 17:01:00,27.0,20.0,-100.00,South,172,2.0,4.0,77,0.00,,,-99.99,,2013-02-07 00:01:00,
2013-02-06 17:11:00,26.0,20.0,-100.00,SSE,164,3.0,4.0,79,0.00,,,-99.99,,2013-02-07 00:11:00,
2013-02-06 17:21:00,26.0,19.0,-100.00,ESE,102,3.0,8.0,77,0.00,,,-99.99,,2013-02-07 00:21:00,
2013-02-06 17:31:00,26.0,19.0,-100.00,ESE,102,3.0,8.0,77,0.00,,,-99.99,,2013-02-07 00:31:00,
2013-02-06 17:41:00,25.0,18.0,-100.00,South,175,4.0,6.0,74,0.00,,,-99.99,,2013-02-07 00:41:00,
2013-02-06 17:52:00,25.0,19.0,-100.00,SSE,160,3.0,4.0,76,0.00,,,-99.99,,2013-02-07 00:52:00,
2013-02-06 18:00:00,19.0,15.0,-100.00,West,274,1.0,2.0,86,0.00,,,-99.99,,2013-02-07 01:00:00,
2013-02-06 18:01:00,25.0,19.0,-100.00,SSE,160,3.0,4.0,76,0.00,,,-99.99,,2013-02-07 01:01:00,
2013-02-06 18:11:00,24.0,18.0,-100.00,NNE,25,0.0,1.0,78,0.00,,,-99.99,,2013-02-07 01:11:00,
2013-02-06 18:21:00,22.0,17.0,-100.00,SSW,196,1.0,1.0,82,0.00,,,-99.99,,2013-02-07 01:21:00,
2013-02-06 18:31:00,22.0,17.0,-100.00,SSW,196,1.0,1.0,82,0.00,,,-99.99,,2013-02-07 01:31:00,
2013-02-06 18:41:00,19.0,15.0,-100.00,West,274,1.0,2.0,86,0.00,,,-99.99,,2013-02-07 01:41:00,
2013-02-06 18:52:00,19.0,15.0,-100.00,West,274,1.0,2.0,86,0.00,,,-99.99,,2013-02-07 01:52:00,
2013-02-06 20:11:00,16.0,15.0,-100.00,SE,134,0.0,0.0,96,0.00,,,-99.99,,2013-02-07 03:11:00,
2013-02-06 20:21:00,16.0,15.0,-100.00,SE,134,0.0,0.0,95,0.00,,,-99.99,,2013-02-07 03:21:00,
2013-02-06 20:31:00,16.0,15.0,-100.00,SE,134,0.0,0.0,95,0.00,,,-99.99,,2013-02-07 03:31:00,
2013-02-06 20:41:00,16.0,15.0,-100.00,SE,134,0.0,0.0,95,0.00,,,-99.99,,2013-02-07 03:41:00,
2013-02-06 20:52:00,16.0,15.0,-100.00,NNE,21,0.0,0.0,96,0.00,,,-99.99,,2013-02-07 03:52:00,
2013-02-06 21:00:00,17.0,16.0,-100.00,SSE,148,3.0,5.0,95,0.00,,,-99.99,,2013-02-07 04:00:00,
2013-02-06 21:01:00,16.0,15.0,-100.00,NNE,21,0.0,0.0,96,0.00,,,-99.99,,2013-02-07 04:01:00,
2013-02-06 21:11:00,17.0,16.0,-100.00,SE,145,0.0,0.0,96,0.00,,,-99.99,,2013-02-07 04:11:00,
2013-02-06 21:22:00,18.0,17.0,-100.00,SE,141,2.0,3.0,96,0.00,,,-99.99,,2013-02-07 04:22:00,
2013-02-06 21:30:00,18.0,17.0,-100.00,SE,140,4.0,6.0,97,0.00,,,-99.99,,2013-02-07 04:30:00,
2013-02-06 21:31:00,18.0,17.0,-100.00,SE,141,2.0,3.0,96,0.00,,,-99.99,,2013-02-07 04:31:00,
2013-02-06 21:41:00,17.0,16.0,-100.00,SSE,148,3.0,5.0,95,0.00,,,-99.99,,2013-02-07 04:41:00,
2013-02-06 21:53:00,17.0,16.0,-100.00,SSE,148,3.0,5.0,95,0.00,,,-99.99,,2013-02-07 04:53:00,
2013-02-06 22:11:00,17.0,16.0,-100.00,SE,145,3.0,4.0,97,0.00,,,-99.99,,2013-02-07 05:11:00,
2013-02-06 22:21:00,18.0,17.0,-100.00,SE,140,4.0,6.0,97,0.00,,,-99.99,,2013-02-07 05:21:00,
2013-02-06 22:42:00,18.0,18.0,-100.00,SSE,160,3.0,6.0,98,0.00,,,-99.99,,2013-02-07 05:42:00,
2013-02-06 22:52:00,18.0,18.0,-100.00,SSE,151,3.0,6.0,99,0.00,,,-99.99,,2013-02-07 05:52:00,
2013-02-06 23:02:00,18.0,18.0,-100.00,SSE,151,3.0,6.0,99,0.00,,,-99.99,,2013-02-07 06:02:00,
2013-02-06 23:11:00,19.0,19.0,-100.00,SE,144,6.0,7.0,98,0.00,,,-99.99,,2013-02-07 06:11:00,
2013-02-06 23:22:00,19.0,19.0,-100.00,SSE,150,5.0,7.0,99,0.00,,,-99.99,,2013-02-07 06:22:00,
2013-02-06 23:31:00,19.0,19.0,-100.00,SSE,150,5.0,7.0,99,0.00,,,-99.99,,2013-02-07 06:31:00,
2013-02-06 23:43:00,19.0,19.0,-100.00,SSE,154,6.0,9.0,100,0.00,,,-99.99,,2013-02-07 06:43:00,
2013-02-06 23:52:00,20.0,20.0,-100.00,SSE,151,6.0,10.0,100,0.00,,,-99.99,,2013-02-07 06:52:00,